Wind_Speed
6 7 8 8 8 9 8 5 4 3 5 6 9 8 10 8 4 5 5 3 2 4 4 6 10 8 7 9 14 15 15 14 10 6 6 8 12 15 11 13 14 12 14 14 14 13 10 9 9 9 9 10 11 9 8 8 9 9 9 12 14 14 13 13 16 15 14 12 11 10 9 8 8 8 9 9 9 9 10 9 9 10 10 10 11 11 11 11 10 10 10 10 10 10 12 13 15
8 11 9 8 8 7 4 4 5 4 7 7 8 10 8 1 4 7 4 7 5 8 6 6 7 10 10 9 12 15 16 15 15 11 10 16 16 15 12 11 13 14 13 12 13 14 12 9 9 9 8 9 11 10 10 9 9 10 10 11 12 14 13 14 16 16 14 13 10 10 9 8 8 8 8 9 9 9 9 9 10 10 10 11 10 11 12 11 10 10 10 10 10 10 11 12 15
10 12 9 7 7 6 4 4 6 6 7 7 8 10 7 3 3 8 6 12 11 11 7 6 7 8 2 9 13 13 12 12 15 12 10 14 13 13 13 11 13 14 13 12 11 13 12 9 8 8 8 9 11 12 11 10 11 11 10 10 12 13 12 14 17 16 15 13 11 10 9 8 8 8 9 9 9 9 10 9 10 9 9 11 11 11 11 10 10 9 9 10 10 10 11 12 14
10 11 10 8 5 6 5 4 6 7 7 7 7 3 7 4 3 8 12 14 11 10 7 7 7 10 6 11 13 11 11 10 13 11 8 10 13 14 15 13 14 14 14 13 12 14 13 10 9 9 9 9 10 12 12 12 12 12 12 10 14 14 11 15 18 16 15 13 11 10 9 9 9 8 9 10 10 10 10 9 9 10 10 11 11 11 11 10 9 9 9 10 10 10 12 13 13
10 11 11 9 4 3 4 4 6 7 8 9 5 4 2 4 12 15 12 11 9 8 8 5 6 8 12 11 8 8 9 10 13 13 10 12 16 16 16 15 14 16 16 14 13 16 15 12 10 10 10 10 10 12 13 13 13 13 13 12 14 15 13 16 18 17 14 13 12 11 10 9 9 9 10 10 10 10 9 9 10 11 11 11 11 11 11 10 9 9 9 9 10 10 12 12 12
10 11 10 9 5 4 4 6 6 8 9 11 7 6 4 8 14 11 9 9 7 7 7 4 8 11 10 10 9 9 9 9 10 12 13 13 16 16 16 16 16 18 17 14 14 16 16 14 12 11 11 10 11 11 13 14 14 14 14 14 15 14 14 16 17 16 14 13 12 11 10 9 10 10 10 11 10 9 9 10 11 12 11 11 10 10 10 9 9 9 9 9 10 11 12 11 11
11 8 6 7 5 3 5 7 7 8 9 13 10 2 5 7 11 6 8 7 6 6 4 4 9 10 7 8 9 11 13 12 10 12 14 14 16 16 15 16 18 18 17 16 16 17 16 14 13 12 12 11 11 11 12 13 14 14 14 15 15 14 15 17 16 15 16 14 12 11 10 10 11 10 10 11 10 9 9 10 11 12 11 10 9 9 10 9 9 9 8 9 9 10 11 11 11
12 7 3 5 5 4 6 8 8 10 7 12 8 3 3 6 8 4 7 5 6 6 4 5 7 7 9 12 8 10 15 16 16 16 16 16 17 15 14 16 19 18 17 17 18 19 18 16 15 14 13 12 11 11 12 13 13 14 14 14 14 14 16 18 17 16 17 14 12 11 11 11 11 10 11 11 11 10 10 11 11 12 11 10 9 9 9 9 8 8 8 8 9 10 11 11 11
11 7 4 5 6 6 7 8 9 11 10 11 4 6 2 6 5 5 7 7 7 7 6 7 6 7 11 15 11 9 13 16 18 17 17 16 17 15 15 17 18 19 18 17 19 20 19 17 15 15 14 12 12 12 12 12 12 13 14 14 13 14 15 17 17 17 17 14 12 12 12 11 11 11 11 10 10 10 10 11 11 11 11 10 10 9 8 8 8 7 7 8 9 10 10 11 10
7 6 5 5 6 7 8 8 7 10 13 11 3 5 4 4 4 5 6 6 7 6 6 4 5 11 11 13 10 9 12 15 18 17 18 18 18 18 17 18 18 19 18 17 19 19 18 16 14 15 15 13 12 11 11 11 11 11 13 13 12 14 15 16 17 17 16 14 13 13 12 12 12 11 10 10 9 9 10 10 11 11 12 11 11 9 8 7 7 7 7 7 8 10 10 11 10
5 5 5 5 6 8 7 8 8 10 12 7 4 4 5 4 4 5 5 6 7 6 7 2 6 14 12 12 8 10 15 15 18 17 18 18 19 20 19 20 18 19 18 17 18 17 16 15 14 16 15 12 11 10 10 10 10 11 11 12 12 13 15 16 17 15 15 15 15 14 13 13 12 11 10 10 9 9 9 10 11 12 12 12 11 9 8 6 7 7 7 8 8 9 10 10 10
6 5 6 6 6 7 7 10 8 11 11 8 6 5 5 5 5 6 6 8 8 6 6 7 6 14 11 11 7 11 16 15 17 16 17 17 18 19 20 20 19 19 19 18 17 16 15 15 14 14 13 10 9 10 10 9 9 10 10 11 12 12 13 14 15 15 16 17 15 14 13 13 12 11 10 9 9 10 9 10 12 12 13 13 12 9 8 7 7 8 8 8 8 9 9 10 10
6 6 6 6 7 7 9 11 8 12 10 8 5 6 6 6 8 9 4 7 7 5 7 4 6 11 9 10 8 11 14 15 16 16 17 17 17 18 19 20 20 20 19 17 16 16 14 13 13 12 11 8 9 10 9 8 8 8 9 10 11 12 12 12 13 15 17 17 14 13 13 12 12 10 10 10 10 10 10 11 12 12 13 13 11 9 7 7 8 8 7 7 8 9 9 10 10
7 6 6 6 7 9 9 10 9 11 5 8 6 8 7 5 7 7 2 6 7 5 7 7 2 8 11 10 8 9 12 16 18 17 18 17 17 17 17 18 18 19 19 17 15 14 12 10 10 9 9 7 7 8 8 8 8 7 8 9 10 10 10 11 12 13 15 15 13 12 12 11 11 10 10 10 10 11 11 12 12 12 13 12 10 8 7 7 8 7 7 8 9 10 10 9 9
7 5 6 7 7 8 8 10 9 11 4 6 8 11 8 5 5 7 3 4 5 7 8 6 4 5 9 12 9 10 16 20 19 18 19 18 18 17 16 15 15 16 17 17 16 13 11 10 7 5 6 5 5 6 6 6 7 7 7 8 8 8 9 10 11 12 13 13 12 12 11 10 10 10 11 12 12 12 12 12 12 12 12 10 8 7 6 6 7 7 7 8 9 9 9 8 8
7 6 6 6 7 8 7 9 8 10 5 8 11 11 9 7 3 5 5 5 7 9 5 4 3 4 3 11 14 19 22 22 20 19 19 19 18 17 16 14 13 12 12 14 16 15 13 11 8 5 5 4 4 4 4 5 6 6 6 7 7 7 8 9 10 10 11 12 12 12 11 10 10 11 12 15 14 13 13 12 12 12 11 8 7 6 5 5 6 7 8 9 9 8 8 8 7
6 6 7 6 8 8 7 8 6 6 3 12 10 9 8 9 5 1 7 6 7 7 4 7 5 6 8 14 22 25 24 22 21 19 18 17 18 17 16 15 13 12 10 11 11 12 13 13 10 7 5 4 3 4 4 6 7 7 6 7 8 8 8 8 9 10 11 12 12 12 11 9 10 11 13 15 15 15 14 12 12 12 10 7 6 5 5 5 7 7 8 9 9 8 7 7 6
6 5 7 6 7 8 9 8 3 1 7 9 6 8 7 9 10 4 4 4 6 6 5 9 7 11 16 20 24 24 23 22 20 18 16 16 16 15 15 15 14 13 11 9 8 7 9 12 11 7 5 4 3 2 3 4 5 7 6 7 9 9 9 9 9 10 11 12 12 12 11 9 9 10 12 14 15 16 16 13 13 12 9 7 6 5 5 6 7 8 9 9 8 8 7 7 6
7 6 6 7 9 9 9 7 8 5 5 7 5 7 7 8 12 7 6 10 8 7 8 9 9 13 15 18 21 20 21 20 18 16 14 13 12 14 14 14 13 13 12 9 8 6 6 6 8 8 6 4 4 2 2 2 3 7 7 7 9 10 10 10 11 11 11 12 13 12 10 10 11 11 10 11 13 15 16 15 13 12 10 8 8 7 6 6 6 7 9 9 8 8 8 7 6
8 6 7 8 8 10 9 3 7 7 5 3 4 5 7 8 10 7 9 12 9 8 8 11 12 13 13 16 18 18 19 17 16 14 11 10 15 16 13 13 11 11 11 9 8 7 6 5 6 6 6 4 4 3 2 3 3 6 7 6 9 10 10 10 11 11 11 11 12 12 10 11 12 11 9 9 10 12 14 15 14 12 11 10 10 9 8 7 6 7 9 10 9 9 9 10 9
7 7 10 8 5 9 5 1 1 3 5 2 3 3 6 9 8 7 9 11 9 10 11 14 13 15 15 15 16 15 15 14 13 11 9 13 15 15 14 13 11 11 11 9 7 6 6 5 5 5 4 4 3 2 0 2 4 4 5 7 9 10 11 12 11 11 11 11 11 11 9 10 11 11 10 10 11 12 12 14 14 13 12 11 12 11 10 10 10 10 10 10 10 11 11 12 13
6 9 14 12 8 7 3 2 2 0 3 2 4 5 4 7 6 7 10 10 4 2 6 14 13 16 16 14 14 13 12 11 11 11 12 14 14 15 14 12 11 12 12 10 8 5 5 5 6 4 3 3 2 2 1 2 6 5 5 6 9 11 11 13 14 12 10 11 10 9 9 8 9 10 11 13 14 14 14 14 14 14 14 14 14 13 12 13 14 13 12 10 10 12 12 12 12
7 8 13 12 8 6 5 4 3 2 5 5 3 5 5 7 6 5 9 6 9 10 6 7 8 15 17 14 11 10 11 10 10 12 14 14 14 15 14 13 12 12 12 11 9 6 6 7 6 5 4 3 1 1 5 5 3 6 6 5 7 11 12 12 14 11 8 11 11 9 10 7 7 9 10 14 14 14 16 16 15 14 16 17 17 15 14 15 16 15 14 11 9 11 10 11 10
9 7 9 8 7 5 3 4 2 3 9 6 0 4 4 7 6 6 10 5 11 9 8 9 9 15 16 12 10 9 10 10 10 13 16 14 15 15 14 15 14 14 13 11 9 7 6 6 6 5 5 3 3 4 4 5 4 2 2 3 6 9 10 10 13 12 8 9 9 9 10 7 7 9 10 13 14 15 17 18 18 17 17 19 18 17 17 17 17 17 16 13 11 9 7 9 9
10 9 9 4 5 4 2 2 2 4 6 3 2 2 3 5 4 5 10 7 9 9 6 6 7 13 13 10 10 9 9 10 11 15 16 15 16 15 15 16 15 14 13 11 9 7 6 6 5 5 5 3 2 4 3 4 6 6 5 2 2 5 7 8 9 9 7 7 5 6 9 8 6 7 10 13 15 16 17 18 19 19 19 19 20 20 19 19 19 18 16 14 13 10 7 7 7
7 11 11 3 4 5 2 3 4 4 4 4 2 6 8 7 3 2 8 8 6 8 4 5 6 11 11 10 8 8 9 9 11 14 16 17 16 15 16 16 15 14 13 11 8 7 7 7 6 5 4 4 3 3 5 5 5 5 5 3 2 0 4 8 6 4 4 4 3 3 5 6 4 6 11 14 15 14 15 18 19 20 22 21 21 22 20 19 18 17 16 13 12 10 9 8 7
3 10 11 3 4 7 4 5 7 6 6 6 5 8 10 8 5 3 8 10 4 7 6 6 6 8 10 11 9 7 8 9 12 15 15 15 14 15 17 16 15 15 13 11 9 7 7 7 7 6 5 6 5 4 6 5 4 5 4 4 5 4 1 4 6 5 3 2 3 3 4 4 3 5 9 11 14 12 11 17 20 21 24 23 21 21 21 20 18 17 16 12 10 10 10 11 9
4 8 8 4 6 5 5 8 8 6 6 7 6 9 11 9 8 8 11 12 8 7 6 7 8 7 8 11 10 7 7 11 15 15 14 13 13 14 15 17 17 14 14 12 11 9 7 9 8 7 6 6 7 6 6 5 4 5 4 5 5 4 4 2 2 2 3 3 2 2 3 4 3 5 7 8 11 13 12 13 18 21 25 23 21 20 19 18 18 17 15 13 11 10 8 10 9
6 7 7 8 9 7 9 10 8 6 7 7 6 8 10 11 10 10 11 6 7 7 7 7 8 7 7 9 10 7 9 13 13 13 14 15 15 16 16 18 17 14 15 13 12 11 9 9 9 8 8 7 8 7 6 5 5 5 5 5 5 4 3 1 1 2 1 5 5 1 2 3 3 5 7 6 8 11 11 9 11 16 21 22 22 19 16 14 15 15 14 14 12 10 8 7 7
8 9 7 8 8 9 12 11 10 9 6 6 4 5 8 12 13 15 12 7 8 7 7 7 8 7 7 8 9 8 10 12 12 14 17 17 17 17 18 18 17 16 15 14 13 12 10 10 9 9 9 9 8 8 7 6 5 5 6 5 4 4 3 2 1 3 5 2 4 2 2 3 3 3 4 5 6 6 7 7 5 6 12 17 19 17 14 12 13 13 15 14 11 9 8 7 6
8 9 7 7 6 9 13 14 12 10 7 7 5 5 6 11 15 18 14 11 9 8 8 8 8 7 7 8 8 9 11 11 14 17 17 19 19 18 19 18 17 18 16 15 14 13 12 11 10 10 10 10 9 9 8 8 7 8 8 5 4 5 2 2 2 3 4 4 4 3 1 2 3 4 5 5 7 6 5 5 4 3 5 9 13 15 13 13 12 10 11 11 10 10 8 8 7
7 7 7 7 6 9 10 15 14 11 8 9 8 5 6 13 15 12 14 11 10 8 9 9 8 8 7 8 7 8 10 11 15 19 18 19 21 20 20 18 19 21 17 16 15 14 14 12 12 12 11 10 10 9 9 8 8 8 8 6 5 5 3 2 2 2 1 2 5 4 1 3 5 3 4 5 5 5 5 6 6 5 4 5 9 12 12 12 9 8 9 9 9 10 7 7 8
6 6 7 6 8 8 5 13 14 12 9 11 11 5 7 9 2 12 13 10 10 8 9 9 9 8 7 7 7 7 8 11 12 16 19 19 21 22 21 18 20 22 18 17 16 15 15 13 13 12 10 10 8 8 8 8 8 7 6 6 5 5 5 3 2 1 1 1 3 3 4 5 6 4 2 2 3 3 5 6 6 5 4 6 7 8 10 11 8 7 10 9 8 8 7 8 9
6 7 7 7 9 8 4 11 13 14 10 10 11 8 10 9 4 14 9 7 9 8 9 10 9 7 7 6 8 8 7 9 9 13 20 18 20 24 22 19 21 22 19 18 18 16 16 14 13 12 10 9 8 7 7 7 8 7 6 7 6 4 5 5 3 1 2 1 2 3 4 5 5 4 4 2 2 2 2 4 4 4 6 8 9 8 8 9 9 9 10 11 10 9 9 10 9
4 4 5 6 9 10 8 6 9 13 11 9 9 9 10 13 6 9 11 9 9 9 8 8 9 9 8 7 8 8 8 8 7 14 22 19 19 24 23 21 22 22 21 19 19 18 16 15 13 12 10 9 7 7 8 9 9 8 6 6 6 5 5 5 4 3 3 2 3 4 5 5 5 4 5 4 2 2 1 3 5 7 10 11 12 11 9 9 10 10 10 12 12 11 11 11 10
9 8 5 6 7 9 7 2 9 9 8 8 9 9 10 11 12 8 11 11 9 9 8 7 8 9 9 8 7 8 8 8 9 16 24 22 20 24 24 24 23 23 22 20 19 18 17 16 14 12 10 9 7 6 8 8 8 7 6 5 6 7 6 4 4 4 4 3 4 4 3 4 5 4 4 4 3 3 3 4 5 6 10 12 13 14 12 10 10 10 11 13 14 13 12 13 10
10 9 8 9 5 5 1 7 9 3 3 6 8 9 11 11 12 12 9 13 11 10 10 7 7 8 9 10 9 9 7 7 11 17 25 26 23 25 26 26 25 24 23 21 19 18 18 16 14 13 11 10 7 5 5 4 5 6 6 5 5 8 8 6 6 5 3 2 2 1 1 2 4 5 5 4 4 3 3 3 5 7 7 9 10 13 15 14 12 11 13 15 16 15 15 14 11
8 8 8 8 5 7 5 6 7 3 1 5 8 9 13 13 12 13 11 11 12 12 10 9 10 9 9 10 10 10 8 7 8 10 18 25 26 27 27 27 26 25 23 23 21 18 17 16 15 15 12 9 6 5 7 5 4 5 6 5 4 6 8 7 6 4 3 1 2 1 1 1 2 3 4 4 5 5 4 3 3 5 7 9 8 9 12 15 16 14 14 16 17 18 18 18 16
8 7 7 7 6 8 7 7 7 4 3 5 8 10 12 14 15 14 13 12 10 12 12 10 10 11 10 10 9 8 7 7 7 6 10 18 26 27 26 26 27 26 24 24 22 20 18 16 16 15 13 11 8 8 8 7 7 6 7 5 4 6 5 5 6 4 4 3 2 2 1 1 1 2 2 3 4 3 4 5 3 4 6 7 7 6 7 11 15 17 18 18 17 16 17 17 18
6 7 7 7 7 9 7 4 5 2 2 5 7 8 10 11 13 13 12 12 8 9 14 12 11 11 11 10 9 9 9 8 8 8 9 12 23 25 24 25 26 26 25 25 23 22 20 17 16 16 14 13 11 10 10 10 9 7 7 5 4 6 5 4 6 5 4 3 2 1 0 1 2 3 2 2 3 3 4 5 5 5 6 6 6 6 5 7 10 14 20 22 19 16 16 15 15
7 8 8 8 9 9 6 1 2 3 3 6 8 8 7 10 12 12 9 10 11 10 12 13 13 13 12 11 10 10 10 10 9 10 9 9 18 21 24 25 26 25 25 26 25 23 22 20 17 17 16 15 13 12 11 11 9 7 6 5 4 6 7 6 5 4 4 3 2 1 2 2 2 3 3 2 2 4 4 4 5 6 6 6 6 6 6 6 7 9 15 22 23 20 20 17 15
7 9 11 11 12 9 8 5 2 3 6 7 8 6 6 9 13 13 9 10 13 13 13 14 13 14 14 12 12 11 10 8 6 6 6 9 14 17 23 26 25 24 25 26 27 24 22 22 19 18 17 15 15 15 12 10 8 8 8 7 7 7 7 8 5 4 4 2 2 2 2 2 2 3 3 3 3 4 4 5 6 6 6 7 7 7 7 7 8 9 11 17 22 24 24 20 17
6 6 9 12 11 7 8 10 5 4 7 5 9 5 6 7 9 9 10 11 13 13 14 15 12 12 14 13 12 11 9 8 7 7 7 8 13 14 18 24 24 24 24 26 28 26 23 22 21 19 18 16 16 16 14 11 10 9 9 6 5 4 7 8 5 4 4 2 1 2 1 1 3 3 2 3 4 4 5 5 6 7 7 8 7 8 8 8 8 9 11 14 18 23 25 23 20
4 2 7 9 8 6 8 10 7 7 7 4 10 8 7 6 9 10 9 11 13 12 12 13 12 12 12 11 12 11 10 10 8 8 8 8 12 14 17 22 24 25 25 25 28 28 24 23 22 21 19 17 17 17 16 13 12 11 9 6 5 4 6 7 6 4 4 3 2 0 1 1 2 2 1 3 4 4 5 6 6 7 8 9 9 8 8 8 9 9 10 13 16 20 24 25 24
6 3 5 9 8 7 7 8 8 7 8 6 9 10 7 6 8 10 12 10 10 10 12 13 12 11 11 11 11 11 10 10 9 9 8 8 11 16 18 21 23 24 26 26 27 27 24 22 22 22 20 18 19 18 17 15 13 12 10 8 7 6 6 6 7 6 4 4 3 1 0 1 1 1 1 2 3 4 5 6 7 7 7 8 9 9 10 9 9 10 11 12 14 18 21 24 24
4 2 3 7 8 7 7 8 8 8 8 8 10 10 7 6 7 8 10 8 7 9 12 12 11 10 10 9 9 10 8 9 9 9 9 8 12 18 20 21 23 24 25 26 25 25 24 22 22 23 20 19 19 18 18 16 13 13 12 10 9 8 8 7 7 7 6 4 4 3 1 1 0 1 2 2 2 2 4 6 8 8 8 9 9 9 10 11 11 11 13 14 14 15 17 21 23
1 2 4 8 8 7 7 7 7 7 8 10 13 13 10 7 6 7 6 6 8 7 6 7 9 11 10 8 9 10 8 8 10 11 10 10 14 20 21 21 22 23 24 25 24 24 24 23 22 22 21 19 20 19 18 17 15 14 13 11 10 9 9 8 7 7 7 6 5 4 3 2 2 2 2 2 2 2 3 5 6 8 8 9 10 8 9 11 12 12 13 14 15 15 16 18 23
4 4 6 7 7 7 6 6 6 7 7 10 13 15 14 9 6 7 6 1 6 3 3 3 6 10 10 8 9 10 8 9 10 11 11 11 13 17 19 20 21 23 24 24 24 23 23 23 22 22 21 20 20 20 19 18 17 15 13 12 12 11 10 9 8 8 8 7 5 5 4 4 3 3 3 3 3 3 4 5 6 7 7 8 9 10 10 11 12 13 13 14 15 15 16 17 19
6 6 6 7 6 6 7 7 7 8 9 11 14 13 11 8 6 9 10 5 4 5 3 5 8 6 9 9 9 8 8 9 10 10 10 10 10 12 16 19 21 23 24 23 22 22 22 22 23 22 22 21 21 21 19 18 17 16 14 14 14 13 12 10 9 8 8 8 7 6 5 4 4 4 4 4 4 4 5 5 6 7 8 9 10 11 12 13 14 15 14 14 16 16 16 16 17
8 7 6 7 6 6 7 7 7 8 8 9 12 11 7 5 5 9 12 12 8 7 7 6 9 6 6 8 9 8 9 9 9 10 10 11 11 12 17 19 20 23 24 23 21 22 21 21 23 23 22 22 21 21 20 18 17 16 15 15 14 14 13 11 10 9 9 8 7 7 6 6 5 5 5 6 6 6 6 7 8 10 10 11 12 12 13 14 15 15 15 15 16 16 17 17 18
8 9 8 8 7 6 7 6 6 6 4 4 7 6 4 3 4 6 9 10 9 8 8 7 6 7 4 7 9 9 11 10 9 10 8 11 14 15 19 19 20 23 24 24 23 23 22 22 23 23 22 23 21 20 20 18 17 16 15 15 14 14 13 12 11 10 10 9 8 7 7 7 7 6 6 7 7 7 8 9 10 11 11 12 12 13 13 13 14 14 15 16 17 18 18 19 19
6 7 8 8 7 8 7 6 8 8 6 5 4 3 4 5 6 7 8 9 8 8 6 5 6 7 6 6 7 7 8 9 9 9 7 11 17 19 21 21 21 24 25 25 25 25 25 23 24 24 22 23 22 21 20 18 17 16 16 15 15 14 13 12 12 11 10 10 9 8 8 8 8 7 7 7 7 8 9 9 10 10 11 11 12 13 14 14 14 14 14 16 17 18 19 20 20
4 5 7 8 8 8 6 6 8 7 7 7 5 5 6 7 8 9 11 12 11 10 9 8 7 8 7 6 5 5 7 7 7 7 6 9 15 19 22 23 23 25 27 27 27 28 27 24 23 23 22 22 23 22 20 19 17 17 16 16 16 15 14 13 12 12 11 11 10 9 9 8 8 8 8 8 8 8 8 9 10 11 11 12 12 13 14 14 14 14 14 15 16 17 19 20 20
7 6 7 7 7 7 5 5 6 7 8 6 6 8 8 8 7 8 11 12 11 11 10 7 5 5 7 6 5 7 8 8 7 7 7 7 12 18 23 24 26 28 28 29 30 29 27 24 23 23 23 23 24 23 21 19 19 18 17 17 16 16 15 14 13 12 12 11 10 9 9 8 8 8 8 8 8 8 10 10 11 12 12 12 13 14 14 15 14 15 15 16 16 16 18 20 20
12 10 8 6 7 6 6 5 6 7 7 5 7 10 9 9 7 7 10 9 7 9 6 5 8 6 6 6 7 8 9 8 6 6 7 7 9 16 23 25 26 28 27 28 30 30 28 25 24 24 24 24 24 24 22 20 19 18 18 18 17 17 16 15 14 13 13 12 10 9 9 8 8 8 8 9 9 10 10 11 11 12 12 13 14 14 15 15 15 15 16 16 16 16 17 18 19
12 11 9 8 8 8 7 7 5 7 7 6 8 9 8 8 8 9 11 8 5 6 3 4 9 7 5 5 5 7 7 6 5 6 7 7 8 14 23 26 25 27 28 28 28 30 29 27 25 25 25 24 24 24 23 21 20 19 18 18 18 17 16 16 15 14 13 12 10 10 9 9 9 9 9 10 10 11 11 12 12 12 12 13 14 15 15 16 16 16 16 17 17 17 18 19 19
9 9 8 8 7 7 8 8 7 7 7 6 7 8 7 6 6 7 8 5 4 5 4 5 7 6 5 7 6 6 6 5 4 5 6 6 8 12 20 25 23 24 28 29 28 30 30 27 26 26 25 24 25 25 24 22 22 20 19 19 19 18 17 16 15 15 13 12 11 10 10 9 9 10 10 11 11 12 13 13 13 13 13 13 14 14 16 16 17 17 17 18 17 18 19 19 20
9 8 7 8 7 6 6 7 8 7 7 7 7 7 7 6 6 8 7 5 6 8 9 8 7 4 4 7 8 7 5 5 6 6 7 7 6 9 15 22 21 20 23 26 27 28 28 27 27 27 25 25 26 27 25 24 23 22 21 20 19 19 17 16 15 14 13 12 11 11 10 10 11 11 11 12 12 13 13 13 13 14 14 14 14 15 16 17 18 18 17 18 18 18 19 19 20
Wind_Direction
280 303 297 285 273 270 266 233 252 208 227 255 256 264 256 250 117 153 120 86 234 87 69 46 26 49 71 77 77 59 48 38 40 77 95 108 99 90 99 105 111 116 118 126 127 123 118 108 97 93 92 96 103 106 101 89 97 107 131 147 153 157 155 162 166 164 162 155 152 152 150 151 148 142 138 140 147 145 143 141 136 135 133 131 132 129 122 116 111 113 111 111 112 112 111 109 114
279 289 272 257 259 256 255 212 251 243 225 247 246 252 253 182 82 230 159 84 94 93 70 69 61 69 96 105 84 67 57 55 68 83 99 108 96 82 99 105 109 117 122 133 129 122 119 108 97 96 97 102 104 105 101 94 97 100 120 146 156 157 153 157 166 167 164 160 157 156 153 155 150 144 143 147 153 149 147 144 137 140 139 134 135 133 127 121 118 118 114 115 115 115 115 113 118
278 285 265 231 232 237 264 231 239 260 242 249 249 237 220 148 187 233 127 97 95 97 83 86 77 30 92 115 75 68 69 67 80 96 109 110 98 91 109 108 107 119 129 132 125 121 120 107 97 100 103 106 106 105 102 97 97 100 114 138 155 157 157 155 161 166 166 165 162 160 159 161 156 149 149 153 158 152 151 151 143 143 140 137 138 135 129 125 123 122 119 119 120 121 122 119 121
272 276 267 243 228 222 244 243 233 254 254 256 270 225 186 194 104 99 96 104 105 110 112 106 80 11 16 101 90 83 79 71 74 86 96 95 98 103 111 110 107 114 123 125 122 122 124 114 107 108 105 106 106 106 103 99 99 103 112 132 153 155 160 159 163 168 168 169 165 164 165 168 163 156 154 154 159 156 156 156 146 141 140 139 141 138 132 129 128 127 125 125 127 126 127 125 123
268 264 260 252 251 241 242 248 239 242 251 254 276 19 142 132 86 93 98 110 121 127 118 122 118 57 41 66 87 93 92 89 79 85 93 90 97 104 108 108 106 109 116 121 122 124 130 127 121 115 109 110 109 106 103 103 104 106 112 127 149 156 158 158 162 167 168 169 170 169 169 173 168 162 157 155 160 163 164 157 143 141 144 144 144 140 134 134 133 132 130 133 134 131 130 129 125
256 252 242 242 269 308 280 246 240 240 244 259 274 355 2 104 98 107 113 120 122 112 120 133 118 96 64 55 55 61 86 96 83 87 94 96 101 104 105 103 103 107 114 122 124 127 135 134 126 120 116 118 114 109 104 105 108 110 116 125 145 159 159 159 162 165 170 174 175 172 173 179 172 165 159 159 164 168 168 157 149 148 149 148 147 141 138 138 135 134 135 139 141 138 135 131 126
247 246 219 224 256 271 260 248 243 249 235 250 255 312 320 88 100 128 130 135 117 111 149 126 105 106 101 91 67 57 72 87 89 88 94 101 102 104 103 100 103 106 113 120 128 135 139 135 132 129 124 125 119 117 111 107 111 114 120 128 143 152 157 164 164 165 173 177 176 173 177 181 173 166 162 164 168 168 165 159 158 156 155 154 152 147 143 139 137 139 140 143 145 144 140 135 127
244 251 231 226 241 220 234 251 245 257 252 254 254 93 330 82 106 157 139 164 147 152 175 142 140 125 105 99 90 79 78 86 94 92 96 100 97 100 104 104 104 106 111 116 129 139 142 142 142 138 131 131 128 126 120 113 114 117 124 133 146 150 154 165 165 166 174 176 173 174 178 178 173 167 163 166 169 169 164 161 163 161 162 163 160 154 146 140 140 143 146 148 150 149 143 139 130
237 237 246 244 244 240 233 246 243 254 259 261 277 80 46 87 128 180 159 186 155 160 165 157 160 111 102 99 99 103 91 93 97 95 96 96 95 95 96 100 104 109 112 115 131 139 143 148 146 145 143 141 137 133 128 122 120 121 128 137 149 150 152 164 167 167 173 174 174 175 177 180 177 169 164 166 169 172 169 166 168 165 165 167 165 158 147 143 145 145 150 155 155 154 145 142 135
230 222 234 249 240 251 241 242 239 249 248 237 221 132 167 122 169 196 177 169 137 151 129 117 120 111 110 104 108 113 109 110 104 99 98 99 102 98 94 98 105 111 113 121 137 142 144 149 149 152 153 148 145 141 135 130 128 128 132 138 148 150 152 162 164 166 172 174 177 177 179 184 180 174 169 168 173 175 175 174 173 170 167 170 171 164 153 145 148 146 151 158 158 155 148 145 137
230 215 232 255 242 246 245 248 231 241 245 204 128 124 192 205 211 203 175 153 150 133 108 158 135 116 108 100 103 114 120 116 105 102 101 100 102 103 100 101 107 112 116 124 137 143 145 152 156 158 159 157 156 151 143 136 134 135 134 137 147 152 154 163 166 168 175 174 177 177 178 184 182 180 178 176 181 180 183 180 175 174 171 177 178 169 163 154 150 146 153 164 165 159 151 146 138
241 217 220 240 249 245 243 255 240 238 230 161 137 148 196 226 222 215 190 166 159 126 143 217 147 120 119 110 109 127 125 113 106 107 105 103 104 107 107 107 110 113 116 119 126 133 137 147 155 161 164 169 170 161 150 141 137 135 134 138 148 154 156 166 171 171 173 173 175 176 178 185 185 184 184 184 188 187 190 185 179 180 176 182 182 174 172 165 155 153 162 171 172 162 151 146 137
245 237 230 231 249 255 251 257 254 251 225 144 161 171 175 206 209 222 199 138 142 162 161 161 139 136 127 117 128 138 124 115 117 114 109 106 104 107 110 114 115 115 116 115 121 126 127 139 151 159 163 168 172 167 156 146 142 138 137 141 150 156 159 168 172 169 169 172 175 177 180 187 188 185 187 189 193 188 188 189 187 182 176 180 181 177 174 163 157 159 167 171 166 157 148 145 138
239 244 252 250 251 256 260 262 262 265 222 134 172 160 165 199 198 217 167 145 161 175 125 84 103 120 110 123 138 139 126 125 123 114 112 108 105 105 105 111 116 119 120 118 122 126 127 138 149 153 152 159 169 169 165 156 149 143 141 142 149 156 164 175 178 173 170 175 179 179 183 187 185 183 191 194 195 189 185 190 190 182 175 176 177 178 170 154 156 158 162 164 157 152 148 147 141
241 250 257 263 265 257 253 260 271 281 266 148 152 137 162 176 181 214 178 178 150 105 91 64 19 75 133 154 147 139 130 125 119 114 114 108 107 104 101 101 103 112 119 124 126 127 131 138 147 142 140 163 180 175 175 175 162 149 149 146 146 156 166 178 182 178 175 179 181 185 188 185 181 181 193 197 196 191 186 191 191 183 176 177 177 176 169 149 153 157 158 159 153 151 151 152 147
240 254 261 263 264 261 253 257 263 275 286 112 124 133 167 151 169 217 96 69 99 111 120 101 46 4 171 155 136 130 125 122 119 120 119 116 117 111 108 102 95 97 103 119 129 132 134 137 141 139 149 171 187 183 181 190 182 162 158 155 154 162 170 182 184 183 184 187 189 189 187 182 183 189 197 195 195 192 186 189 188 181 175 175 182 183 178 155 153 158 160 159 152 154 158 159 158
233 243 260 257 253 257 256 256 245 261 66 101 135 161 174 149 173 222 85 85 109 134 132 96 81 43 68 109 121 121 122 124 127 131 130 133 131 120 117 113 108 104 97 105 121 134 138 139 139 139 154 169 183 191 186 189 191 173 165 165 166 173 181 191 188 189 195 194 190 184 180 183 191 198 201 194 190 190 185 183 180 179 175 174 188 194 191 162 156 162 163 161 155 158 167 170 174
234 226 244 249 250 246 249 268 279 250 102 110 155 172 193 171 176 165 115 165 125 143 133 95 93 88 89 104 115 121 125 131 140 145 145 155 150 133 129 126 124 119 113 103 100 110 121 136 139 133 138 156 167 186 199 198 198 171 166 177 180 183 186 196 193 191 199 196 188 184 182 189 201 201 202 194 184 185 182 178 177 175 175 176 183 191 192 169 159 168 170 168 166 164 167 171 172
237 229 236 243 250 248 251 307 12 8 94 137 174 177 219 182 168 157 174 201 156 162 161 139 133 113 114 116 119 127 131 141 154 157 165 169 137 116 113 113 118 118 118 104 91 86 73 97 114 115 106 111 138 155 188 170 195 174 170 188 195 195 188 197 200 193 197 198 194 193 187 191 204 203 203 194 175 179 182 178 179 175 174 177 178 178 182 175 165 176 181 177 179 177 170 175 172
228 233 242 230 253 278 265 330 33 353 13 128 166 188 216 165 160 162 195 208 175 189 178 159 159 142 142 130 128 135 137 151 164 171 171 138 104 104 111 114 120 114 111 98 82 80 71 60 67 89 93 94 134 169 171 148 187 185 179 194 203 203 196 200 208 206 202 199 199 198 197 201 209 207 208 202 178 180 182 177 179 177 175 176 177 172 171 173 167 180 191 191 194 195 186 183 179
214 220 244 236 272 306 276 211 103 291 331 24 125 210 207 156 165 169 204 214 179 211 198 174 175 162 154 136 134 138 143 154 164 172 140 110 106 110 112 114 121 118 113 105 92 85 94 93 69 67 77 92 119 129 114 158 174 179 191 203 204 203 204 207 210 214 210 205 205 200 201 213 223 219 211 207 194 187 182 179 180 182 180 178 181 174 170 170 165 173 185 197 203 213 215 194 184
222 220 240 256 289 319 17 15 347 51 295 281 147 206 195 150 179 172 211 222 151 276 197 176 179 160 147 133 136 141 150 155 159 161 121 106 105 102 105 110 118 120 114 104 97 90 94 101 95 77 58 76 117 151 107 139 172 187 203 204 207 203 207 215 210 214 222 211 206 206 206 207 216 222 215 206 199 191 192 191 186 190 191 185 186 180 180 175 168 172 179 196 212 230 229 192 178
226 226 235 253 273 300 11 29 25 14 260 245 176 223 213 170 193 189 224 223 82 36 47 118 131 135 135 130 137 147 153 156 163 152 126 118 116 121 133 132 124 114 107 103 100 95 83 81 89 86 64 61 22 149 123 110 160 206 205 198 205 205 209 217 213 218 233 212 198 207 215 200 193 214 218 209 204 198 200 200 191 196 204 197 188 183 191 183 174 182 188 194 207 232 220 173 172
228 247 250 249 237 240 22 45 29 271 248 251 189 252 232 170 188 204 224 197 94 69 65 83 92 119 130 132 142 152 152 160 161 140 133 134 127 129 129 118 113 109 107 105 105 103 88 76 73 76 69 57 16 39 113 106 69 118 174 199 195 200 207 211 217 225 233 217 193 195 211 202 196 212 212 208 211 211 208 206 200 199 207 206 192 186 197 190 183 194 198 196 193 210 199 165 181
223 250 267 255 221 221 103 94 245 247 249 292 29 254 240 194 210 212 219 204 111 98 105 123 122 124 132 138 147 154 152 159 149 132 130 127 120 122 116 109 110 108 108 105 104 101 99 97 84 85 74 65 69 43 71 92 68 79 76 50 186 202 207 197 211 220 216 222 187 179 214 214 206 201 198 205 211 217 218 211 206 205 209 210 200 194 202 196 191 199 201 206 200 190 181 173 191
216 235 253 230 206 235 179 189 223 221 238 254 229 226 231 226 253 263 236 238 119 115 173 185 150 145 145 145 150 151 152 153 138 125 121 123 128 127 121 121 122 117 117 117 115 102 100 108 94 98 89 73 103 77 67 79 68 75 76 67 78 284 228 215 222 215 194 235 224 186 220 223 215 191 191 201 203 213 226 219 210 211 213 213 209 204 206 201 196 199 194 200 200 184 179 182 195
239 236 250 243 234 234 189 219 227 210 230 231 223 234 236 228 221 225 240 246 165 135 197 200 177 173 153 147 152 149 153 145 132 126 121 131 139 132 132 132 126 125 126 125 123 116 108 110 96 90 99 79 81 97 87 83 82 79 80 96 89 48 15 235 246 244 219 266 279 245 234 224 220 197 187 192 199 207 221 222 216 213 213 215 222 213 204 204 201 195 188 187 191 186 186 181 190
271 254 259 237 238 231 190 232 230 203 225 218 225 247 245 233 210 214 238 233 181 159 206 198 186 189 161 152 151 153 157 141 136 133 131 145 147 142 141 129 124 129 129 127 125 123 106 102 99 88 99 83 71 92 98 87 90 93 92 94 93 68 59 52 330 286 219 220 286 316 266 243 232 219 204 184 197 208 204 214 220 217 213 218 234 222 198 202 201 194 191 189 189 190 186 178 185
258 256 264 234 221 223 216 227 218 206 220 194 215 255 247 240 220 215 235 216 152 172 215 205 189 187 173 154 149 165 158 145 147 142 145 157 155 150 139 128 135 133 124 127 129 127 114 104 106 97 98 90 78 82 90 95 84 91 103 86 88 101 98 116 47 6 264 228 235 328 344 279 267 247 237 207 198 208 202 212 225 220 215 220 236 227 202 204 201 198 199 193 193 187 174 180 192
251 242 245 245 224 219 218 215 210 209 198 153 179 253 239 237 224 216 213 163 155 201 217 212 197 185 181 156 154 172 155 152 158 152 160 162 155 150 138 137 143 131 126 134 133 132 129 121 115 106 100 96 94 84 82 98 86 84 99 84 91 111 114 139 92 345 352 318 250 273 335 320 308 289 273 242 227 219 205 218 240 236 226 226 232 223 208 205 197 197 199 194 193 181 169 188 210
247 240 228 245 244 237 215 198 203 200 161 150 193 257 256 255 239 215 192 163 178 210 219 218 202 188 186 158 163 176 155 166 167 159 169 159 152 151 140 146 146 134 137 139 138 136 132 129 121 114 107 99 97 91 86 92 82 79 87 82 90 97 97 119 71 345 340 345 343 344 322 353 336 293 301 281 251 243 221 214 220 215 216 228 229 218 212 206 194 197 202 196 188 183 185 192 207
233 238 230 227 237 268 228 181 186 192 168 179 210 252 251 266 261 194 154 160 188 210 218 216 202 192 187 161 173 184 156 171 173 162 167 156 151 152 145 154 147 136 142 140 141 140 133 133 127 121 116 109 103 98 96 94 91 87 85 83 83 85 77 83 81 33 308 325 360 16 49 9 5 343 314 304 281 268 257 236 227 217 189 204 215 205 205 206 203 207 203 196 188 190 198 196 206
216 230 246 236 225 259 218 160 179 197 188 191 205 245 258 271 325 118 133 169 189 213 214 205 205 190 183 171 174 191 163 168 179 164 163 158 153 152 151 158 146 139 146 145 145 144 139 139 135 132 127 122 116 110 107 103 107 103 95 93 86 97 88 62 67 56 32 38 21 38 50 21 14 27 17 321 319 313 290 268 251 252 232 223 221 204 205 211 216 216 200 193 197 205 213 216 215
209 212 234 253 249 259 206 170 186 199 206 206 199 221 264 278 97 119 146 189 192 220 220 200 201 185 183 188 178 195 181 166 180 164 160 163 157 154 157 160 148 143 149 151 151 149 146 146 144 143 140 137 134 134 131 124 127 124 124 112 87 103 104 65 38 70 78 64 28 2 2 19 26 25 36 23 340 357 317 284 263 257 246 240 240 226 211 212 217 218 207 198 197 212 227 240 247
274 248 231 243 248 262 264 216 180 188 206 222 218 221 244 264 250 158 163 191 209 220 224 210 198 188 187 197 196 203 194 175 181 162 158 165 162 156 159 161 152 149 154 156 157 153 151 153 155 153 153 151 146 154 161 154 145 131 118 106 84 90 96 65 44 52 51 45 58 23 336 353 20 23 37 40 22 45 7 290 277 262 255 254 253 245 227 216 220 220 217 211 205 214 226 244 269
336 326 303 277 242 236 256 176 150 176 202 215 235 247 245 254 262 233 177 180 211 220 224 225 202 191 188 201 212 212 205 188 183 166 159 166 168 160 160 161 156 156 159 160 162 161 158 159 160 161 161 160 167 185 188 174 152 124 100 87 83 81 70 72 95 72 30 23 49 39 355 354 354 351 19 29 32 40 26 350 331 299 273 268 260 253 247 233 230 227 223 226 223 223 227 237 258
335 324 309 307 289 255 274 104 119 147 229 224 233 251 260 260 262 261 214 175 190 217 221 224 218 205 195 205 210 212 221 206 192 175 163 167 171 165 161 161 159 159 162 165 168 168 164 164 166 168 168 175 192 184 155 135 112 107 100 80 73 77 64 68 94 76 32 4 7 24 45 13 341 340 356 357 353 3 11 6 344 334 312 295 275 259 253 241 235 232 227 233 236 234 235 236 244
330 316 298 302 299 289 296 109 109 95 148 253 266 268 272 272 265 264 250 204 189 202 216 219 222 224 215 214 213 211 215 215 210 187 173 174 169 165 162 160 160 161 165 168 171 172 170 170 173 171 170 178 187 149 131 123 108 102 98 83 66 80 73 72 86 74 67 57 15 60 85 64 15 2 4 348 340 338 341 345 326 326 322 315 309 282 262 247 238 237 232 234 238 236 238 240 241
324 308 290 290 286 283 264 168 144 140 163 252 270 273 273 270 264 257 251 241 205 186 201 219 225 231 231 221 220 221 219 221 215 201 204 185 164 160 161 160 163 166 169 171 173 175 174 177 178 171 170 174 169 154 151 150 146 129 114 114 96 94 90 86 99 88 71 62 25 61 75 52 15 340 341 336 335 329 329 334 327 317 311 311 315 309 285 259 245 240 236 236 240 238 236 239 238
290 283 277 273 259 268 267 158 112 45 318 287 281 279 274 268 264 255 242 247 247 195 187 199 219 233 242 235 230 225 221 232 219 211 228 183 155 158 162 162 167 169 170 172 175 177 176 182 181 171 170 172 168 164 161 155 154 146 127 123 107 110 119 107 99 82 58 38 15 39 112 358 337 319 313 309 313 315 318 317 311 309 306 303 301 293 288 276 259 245 237 235 238 237 233 234 231
257 248 255 268 260 277 305 57 75 345 278 257 264 276 269 257 252 248 236 229 245 243 212 202 206 218 235 241 244 236 221 225 215 210 220 169 151 161 165 165 169 170 170 173 177 178 177 184 184 175 173 171 170 170 172 170 164 157 148 148 156 150 134 110 96 79 61 37 20 348 302 314 310 301 295 292 302 304 306 307 304 306 302 301 301 288 276 271 265 255 241 234 232 234 237 237 235
263 240 234 246 256 281 312 302 282 292 270 227 223 255 271 259 244 230 224 220 225 234 235 229 215 212 221 226 235 237 228 229 218 216 216 159 157 167 164 166 170 171 173 175 177 179 179 183 185 179 174 172 175 173 175 179 171 171 184 188 190 179 134 105 97 86 76 43 11 333 311 313 290 285 285 294 302 296 302 309 306 309 306 300 299 293 288 277 261 253 249 240 234 234 237 238 236
259 257 245 235 234 252 286 292 283 274 286 188 175 233 282 288 273 233 210 214 220 217 222 233 232 225 224 221 221 219 219 225 217 222 228 171 165 173 165 168 172 172 176 177 176 181 181 182 184 179 174 175 177 175 175 179 178 182 194 195 189 171 126 116 121 112 100 87 26 338 328 333 289 286 284 286 296 297 297 299 298 303 304 303 301 294 292 290 278 263 254 247 239 235 233 232 231
254 317 291 262 237 237 255 273 268 260 280 192 179 229 266 278 288 277 242 214 208 206 210 221 231 239 241 232 220 212 210 211 200 200 218 194 173 177 171 171 174 174 178 177 174 180 182 181 182 177 176 178 177 177 178 180 182 183 185 186 183 166 135 135 151 146 120 123 125 55 10 324 285 284 296 282 288 298 298 298 299 302 304 304 304 298 292 287 282 278 270 260 246 235 230 229 227
249 214 267 270 263 257 247 253 253 247 260 244 221 234 247 249 258 266 259 231 195 192 211 218 219 230 244 240 228 222 210 198 191 181 198 206 172 171 175 173 175 176 177 176 174 177 181 182 180 176 177 179 178 180 180 182 186 180 178 186 187 171 155 163 173 164 148 147 149 135 93 315 286 282 286 275 280 288 293 295 288 288 297 301 301 299 297 295 290 285 282 279 262 243 232 227 225
278 320 263 266 270 269 249 246 254 248 247 251 249 247 253 264 255 247 244 228 199 202 219 218 208 214 232 230 220 225 211 188 186 174 185 205 171 168 176 173 175 177 176 175 174 175 181 183 179 177 179 179 179 183 183 186 188 179 180 191 187 172 171 183 175 161 167 173 165 162 166 159 177 258 262 269 277 268 273 286 284 279 278 279 283 292 297 298 299 294 284 282 280 267 248 234 230
238 321 257 250 247 245 240 240 252 259 253 248 250 251 253 259 262 263 255 206 195 223 243 219 199 203 216 216 203 210 208 190 184 173 179 197 175 167 171 170 173 175 173 172 171 174 180 184 180 178 182 182 182 186 187 188 187 181 185 191 189 184 181 183 177 169 176 180 174 174 182 184 188 208 229 256 266 251 260 277 286 285 285 283 277 281 294 294 293 296 289 282 280 278 270 254 240
224 238 246 253 236 223 228 233 235 246 255 251 249 244 242 249 243 257 296 74 152 191 298 277 223 201 198 203 201 200 205 200 187 174 180 189 173 163 165 168 170 169 168 170 171 174 179 182 182 180 184 185 184 186 188 188 186 184 188 190 189 191 187 184 188 185 179 181 186 184 188 195 204 215 214 229 240 243 260 270 280 284 291 296 284 274 280 283 281 281 283 286 285 279 276 268 248
236 237 237 250 248 228 224 228 226 238 243 243 253 251 245 257 243 249 287 305 194 191 224 286 280 224 186 192 198 189 199 205 189 181 186 179 166 161 164 169 169 165 166 171 172 175 179 182 182 183 187 185 183 186 188 188 187 187 189 189 188 189 189 189 192 190 185 188 193 189 194 204 211 221 218 222 235 246 260 267 275 279 278 282 281 276 273 272 272 271 273 281 285 284 281 276 263
211 232 236 239 249 248 242 238 232 242 240 232 251 264 266 276 252 243 265 271 257 227 202 239 279 262 189 193 202 189 196 210 201 200 193 168 160 162 165 171 168 162 166 173 176 177 181 184 184 186 188 186 184 186 187 189 191 191 191 189 189 189 190 191 192 194 191 191 196 195 198 207 218 230 232 237 243 245 252 258 268 276 277 277 276 276 275 275 274 272 270 272 274 277 279 278 274
210 220 233 243 256 261 261 261 258 270 285 239 236 246 247 269 272 256 268 279 283 264 214 199 246 268 229 206 216 204 198 205 208 219 204 163 158 161 164 170 167 163 170 176 178 180 182 185 185 187 188 186 185 185 186 190 192 194 194 191 191 191 191 192 194 197 196 193 197 201 203 211 220 231 238 243 245 246 253 263 273 278 279 281 280 279 278 279 279 275 271 270 271 272 272 274 274
248 234 234 242 258 268 273 280 284 295 306 282 250 230 221 239 256 260 275 281 280 283 271 219 211 242 249 224 229 230 220 210 200 215 214 166 160 161 164 170 170 169 176 180 179 180 183 186 186 187 188 185 185 185 186 191 193 194 196 194 194 192 192 194 196 199 199 196 198 201 208 217 222 231 240 245 248 251 258 267 275 277 278 280 283 284 282 280 281 280 277 274 272 271 271 271 270
275 269 256 247 246 259 276 286 285 283 279 274 267 261 253 247 243 239 251 261 259 259 261 250 218 212 228 227 216 229 246 243 215 210 210 170 161 163 168 175 175 174 181 184 182 182 184 185 184 187 189 184 184 186 188 190 192 194 195 196 196 195 193 194 197 199 196 196 202 205 210 218 225 234 241 247 252 256 263 269 272 274 276 281 283 284 284 282 282 282 281 279 274 272 273 272 272
254 258 266 265 254 256 264 266 265 257 258 260 245 246 251 255 254 240 241 249 262 264 251 258 267 223 223 232 215 219 234 243 238 220 211 188 171 169 174 178 179 179 183 183 182 182 183 185 185 186 187 185 183 186 188 189 190 192 194 195 196 195 195 194 196 198 197 199 206 210 215 221 228 236 241 249 257 262 269 272 274 277 278 281 284 284 284 283 283 282 280 279 279 277 277 276 274
266 275 284 279 262 256 244 241 251 251 255 260 251 249 249 254 262 264 257 249 269 289 277 268 280 262 236 234 223 229 230 228 233 223 215 210 188 174 174 178 180 179 180 181 181 180 178 181 187 188 187 186 183 184 186 188 189 191 192 194 195 194 195 195 195 197 199 204 209 211 217 223 229 239 245 254 261 266 271 273 273 277 279 279 281 283 284 284 283 282 279 279 280 281 280 278 275
263 267 268 263 263 267 260 256 257 250 251 259 263 261 258 259 255 255 266 268 266 279 289 271 272 270 274 275 250 245 245 232 227 231 230 221 207 186 174 174 178 177 181 185 180 174 174 179 186 188 186 185 182 181 184 186 187 189 189 191 193 193 193 194 196 198 200 204 209 212 220 229 235 244 250 256 261 264 270 273 273 274 276 278 279 280 283 285 284 282 280 278 279 280 280 279 278
250 256 260 259 264 278 277 267 260 260 263 266 267 264 258 265 273 269 278 302 299 282 289 275 261 251 262 279 276 261 264 279 269 254 257 236 213 195 172 170 179 184 186 186 174 168 174 181 184 185 184 181 179 180 183 185 185 187 188 190 192 192 194 195 196 198 201 205 211 216 223 231 238 245 251 254 259 265 270 273 273 274 274 274 277 279 281 283 284 283 280 278 277 278 278 278 278
265 266 266 263 258 268 274 263 257 263 269 271 272 269 263 271 305 311 311 331 337 334 332 313 298 293 270 268 273 257 235 268 284 270 265 258 225 192 170 168 182 195 186 175 168 167 173 179 183 182 181 180 180 180 182 184 184 187 189 190 191 192 194 195 196 198 202 207 213 220 226 232 239 246 250 255 261 267 272 273 274 275 275 273 274 277 280 282 282 281 280 278 276 274 275 275 276
Height
773 773 772 774 772 773 771 770 783 778 777 785 770 761 748 724 726 731 736 738 739 737 731 734 731 731 739 748 755 756 758 760 762 771 789 782 773 779 779 782 783 784 786 786 788 789 790 791 790 791 792 793 794 794 795 796 797 799 800 801 802 803 804 806 808 810 811 812 813 813 814 815 816 817 818 819 819 819 819 820 821 821 821 822 822 822 822 823 824 825 825 826 827 827 827 828 829
773 773 772 774 771 775 771 767 786 782 777 785 765 754 740 723 732 735 735 738 740 737 731 734 735 736 739 741 746 755 760 759 758 764 772 772 775 780 780 784 784 784 786 786 788 788 790 791 790 791 792 793 794 795 795 796 797 799 800 801 803 804 805 808 809 811 812 813 813 814 815 815 817 818 819 820 820 820 820 821 821 822 822 822 823 823 823 824 825 826 826 827 827 828 828 829 830
773 773 771 773 770 772 770 769 785 785 781 781 759 739 729 731 738 731 728 734 735 733 735 737 739 742 740 747 753 762 768 761 758 762 767 771 776 780 783 785 784 786 786 787 788 788 790 791 791 791 792 794 794 795 795 796 797 799 800 801 804 805 806 808 810 812 813 814 814 815 815 816 817 818 820 820 821 821 821 822 822 823 823 823 824 824 824 825 826 826 827 828 828 829 829 830 831
772 772 771 771 770 772 774 777 780 781 781 773 755 732 724 733 732 729 729 732 732 732 739 741 747 745 743 756 758 763 770 764 762 764 768 771 775 781 784 784 785 787 787 788 788 788 789 791 792 792 793 794 795 796 796 797 797 799 800 801 803 805 807 808 810 813 813 814 814 815 816 817 818 818 819 820 821 822 822 822 823 823 824 825 825 825 825 826 827 827 828 829 829 829 830 831 832
772 772 771 769 773 772 772 777 773 776 776 762 753 735 724 730 732 735 733 733 732 733 739 743 752 749 746 754 755 765 770 766 765 765 770 772 776 781 783 784 785 786 788 788 788 789 789 791 793 793 794 795 796 796 796 797 797 798 799 801 803 804 807 809 811 812 813 814 814 815 816 817 818 819 819 820 822 822 823 823 824 825 825 826 826 826 826 827 827 828 829 829 830 830 831 831 833
772 771 769 768 769 766 773 779 773 772 762 749 749 738 727 728 734 738 736 735 731 732 737 741 749 753 759 758 756 763 764 766 768 766 770 774 777 781 782 784 784 786 788 788 788 789 789 791 792 794 795 796 797 796 796 797 797 798 799 801 802 804 806 809 811 812 813 814 815 816 816 818 819 819 819 821 822 823 824 824 825 825 826 827 827 827 827 828 828 829 830 830 831 831 831 832 833
771 771 768 771 770 767 780 781 772 766 749 739 741 736 731 728 734 738 740 741 739 737 737 740 744 755 766 763 763 764 761 766 767 769 772 774 778 780 783 784 785 786 787 788 788 789 790 791 792 794 795 796 797 796 797 797 797 798 799 800 801 803 806 808 810 811 813 814 815 816 816 818 819 820 820 821 822 824 824 825 826 826 827 828 828 828 828 829 829 830 830 831 831 832 832 833 834
770 770 766 773 776 772 780 776 767 760 744 732 727 730 731 730 735 739 743 745 746 744 742 743 741 757 766 761 771 770 764 767 768 772 774 775 778 780 783 784 785 787 788 788 788 790 791 792 793 795 796 797 797 797 797 797 798 798 799 800 801 803 805 807 809 810 812 813 814 816 817 819 820 820 821 822 823 824 825 826 826 827 827 828 829 829 829 830 830 831 831 832 832 833 833 833 834
767 769 768 773 778 774 774 771 763 754 743 732 726 730 731 731 735 739 743 744 744 745 745 743 741 759 767 765 775 771 767 771 771 774 775 777 779 781 783 784 787 788 788 788 789 791 792 793 794 795 796 796 797 797 797 797 798 798 800 800 801 803 805 807 808 810 811 813 814 816 818 819 820 821 821 822 824 824 825 826 826 827 828 829 829 829 830 831 831 832 832 833 833 834 834 834 835
765 767 770 773 776 778 774 767 759 750 740 731 727 731 732 732 735 737 741 743 742 745 745 740 743 759 767 770 775 770 770 772 772 775 776 779 780 783 785 785 788 788 789 789 790 792 793 794 793 795 796 796 797 797 798 797 798 799 800 801 802 803 805 806 808 810 811 813 814 816 818 820 821 821 822 822 824 825 825 826 826 827 828 829 829 830 831 831 832 832 833 834 834 834 835 835 836
769 765 766 775 778 780 774 763 754 746 734 728 729 731 732 731 735 737 738 743 742 746 747 744 750 758 765 772 774 770 770 771 773 776 777 780 782 784 786 787 789 789 790 789 791 792 793 794 794 795 796 797 797 798 798 798 799 800 800 801 803 804 805 807 809 810 811 813 815 817 818 820 821 821 822 822 824 825 825 826 826 827 827 829 830 830 831 832 832 833 834 835 835 835 836 836 836
772 767 766 779 779 772 766 759 749 741 731 731 736 733 731 731 737 740 739 743 743 748 750 748 749 753 767 775 773 769 769 772 775 777 779 781 782 785 786 788 789 790 791 790 792 793 793 794 795 796 796 797 797 798 799 799 800 800 801 802 803 805 805 807 809 810 811 813 815 817 818 820 821 822 822 823 824 825 825 826 826 827 827 829 830 830 831 832 833 833 834 835 836 836 836 837 837
771 767 768 775 770 764 760 754 745 738 731 732 736 731 730 734 740 739 737 742 746 753 750 744 743 748 766 773 770 769 769 774 775 778 780 781 783 785 787 788 790 790 791 792 793 793 794 794 795 796 796 797 798 799 799 800 801 801 802 803 805 805 806 808 809 810 811 813 815 816 818 820 821 822 823 823 824 825 825 826 826 827 827 829 830 830 831 832 833 834 835 835 837 837 837 838 838
766 762 766 770 763 760 757 753 745 740 732 728 731 729 731 736 736 734 737 747 750 750 744 740 740 750 766 771 772 770 770 774 775 779 780 783 785 786 788 788 790 791 792 793 794 795 795 795 796 796 796 797 798 799 799 800 801 802 803 804 806 806 807 809 809 811 811 813 815 817 818 820 821 822 823 824 824 825 825 826 826 827 828 829 829 830 831 832 833 834 835 836 837 838 838 838 839
761 759 762 768 765 760 755 751 745 743 733 723 727 729 735 735 733 736 739 747 749 741 741 743 743 755 766 768 774 769 769 774 776 780 781 784 785 787 789 789 791 791 792 793 794 795 796 797 797 797 797 798 798 799 800 800 801 802 804 805 807 808 808 809 810 811 812 814 816 817 819 820 821 822 824 825 825 825 826 826 827 827 828 829 830 830 832 833 834 834 835 836 837 838 839 839 839
756 757 765 770 770 764 755 747 745 748 735 724 728 731 739 737 733 739 736 740 748 742 745 751 748 754 756 757 765 764 768 774 776 781 782 785 786 788 790 791 793 792 793 793 794 795 796 797 797 798 798 798 799 799 800 800 802 803 804 806 807 808 809 810 811 813 814 815 817 818 819 820 822 822 823 824 825 825 826 827 827 828 829 830 830 831 832 833 834 835 836 836 837 838 839 840 840
753 760 771 773 770 765 754 745 745 746 735 732 735 733 743 744 738 737 734 738 749 749 748 752 750 751 752 754 760 764 770 774 777 781 782 785 785 788 790 792 793 793 794 794 794 795 795 796 797 798 798 799 799 799 800 801 802 803 805 806 807 808 809 811 812 813 815 816 818 819 820 821 822 822 823 824 825 825 825 827 828 829 829 830 831 832 832 833 834 835 836 837 838 838 839 840 840
757 765 774 774 768 758 747 740 736 734 735 740 739 736 742 747 745 739 741 746 750 753 753 754 755 755 757 759 763 767 772 775 778 780 781 783 783 786 789 791 793 794 795 795 796 795 795 796 796 797 798 799 800 800 801 801 802 803 804 805 806 808 809 810 811 813 815 816 818 819 820 821 822 823 823 824 825 825 825 826 828 829 829 831 832 833 833 834 835 836 837 837 838 838 839 839 840
760 765 771 770 759 747 735 732 732 732 737 740 738 739 741 743 744 743 751 755 752 758 759 758 761 761 762 763 767 770 772 775 777 779 780 780 782 785 788 791 793 794 795 796 797 796 797 797 797 798 798 799 801 801 802 802 803 803 804 805 806 807 808 810 811 813 815 816 817 819 821 821 821 822 823 824 825 826 826 826 827 828 830 831 832 833 834 834 835 836 837 838 838 839 839 839 839
759 762 769 762 749 741 731 730 736 736 736 739 740 740 741 741 741 745 753 754 754 760 759 760 765 765 764 765 768 771 773 775 777 778 779 779 782 785 788 791 793 794 796 797 797 798 798 798 799 799 799 800 801 802 802 803 803 804 805 806 807 808 809 810 812 814 815 816 817 819 821 821 821 822 823 824 825 826 826 827 827 828 830 831 832 833 834 835 836 837 838 838 839 838 838 839 839
756 759 764 751 741 742 734 731 736 737 737 740 743 744 743 740 739 745 751 754 757 756 751 754 760 761 763 765 767 771 773 775 776 778 778 780 783 786 789 791 793 795 796 798 799 799 799 800 800 801 801 801 802 802 803 803 804 805 805 806 807 808 810 811 812 814 816 817 818 820 822 822 822 822 823 824 825 826 827 828 828 829 830 831 832 833 833 834 836 837 838 839 838 838 837 839 839
754 754 753 744 740 744 738 734 737 738 740 742 745 748 744 740 741 745 749 754 756 749 742 744 748 752 759 764 768 771 773 775 776 777 779 782 785 787 790 792 794 795 796 798 799 800 800 801 801 802 802 802 802 802 802 804 805 806 806 807 808 808 810 811 812 815 816 817 818 819 822 823 822 822 824 824 825 825 827 828 828 830 830 830 831 832 833 833 835 836 837 838 838 837 837 839 839
755 752 746 743 742 745 743 741 743 743 745 746 746 745 741 744 748 746 747 750 748 744 739 740 743 748 757 763 768 771 773 775 776 777 780 783 786 788 791 792 794 795 797 798 800 800 800 801 802 802 803 803 803 802 802 804 805 806 807 808 808 809 809 810 812 814 815 816 816 817 819 821 822 822 823 825 825 825 826 828 829 830 830 830 831 832 833 833 834 835 835 837 837 836 837 839 839
753 753 745 742 741 743 745 746 748 748 748 745 743 744 743 749 752 747 747 746 744 744 743 744 746 750 758 764 768 771 772 774 775 777 781 784 786 788 790 792 794 796 797 799 800 801 801 802 802 803 803 804 803 803 803 804 805 807 807 808 808 809 809 810 812 813 814 815 816 816 817 819 821 822 823 824 824 825 826 827 828 829 829 830 831 832 833 832 833 834 835 835 836 836 837 839 839
750 753 746 741 742 743 745 749 751 749 747 744 746 750 749 749 748 748 748 744 742 746 747 748 750 753 760 765 768 770 772 774 775 778 781 784 786 789 791 793 795 797 798 799 800 801 802 802 803 804 804 804 804 804 805 805 806 808 809 809 809 809 809 810 812 813 814 814 815 816 816 818 820 822 823 823 823 824 825 826 827 828 828 830 831 832 832 832 832 833 834 834 835 836 837 838 839
748 749 745 742 746 744 745 750 751 751 749 747 753 757 752 746 748 753 749 742 742 746 750 750 751 756 760 765 768 769 772 773 775 778 781 784 787 789 791 793 795 797 799 800 801 801 802 802 803 804 804 804 805 805 806 806 808 809 809 809 809 809 809 810 812 813 813 813 814 815 816 817 818 821 823 823 823 823 824 824 825 826 827 830 832 832 832 832 832 833 833 833 834 835 836 837 839
743 745 743 743 748 745 747 751 750 750 750 749 756 759 753 746 752 761 752 743 743 748 752 751 753 757 759 764 767 769 772 773 776 779 782 785 788 789 791 793 795 797 799 800 801 801 802 803 803 804 804 804 805 806 807 808 809 809 810 810 810 809 809 810 811 812 813 813 813 815 817 817 818 819 822 823 823 823 824 824 823 824 826 829 833 833 832 832 832 832 832 833 834 834 835 836 838
743 745 746 746 748 747 749 752 749 751 753 750 754 757 753 748 754 759 751 742 744 751 754 752 754 757 758 762 766 769 771 773 776 779 783 785 787 789 791 793 795 797 799 800 801 802 802 803 804 804 805 805 805 806 807 808 809 810 811 810 810 810 810 810 811 812 812 813 814 816 817 817 818 819 821 822 821 822 823 823 822 823 825 829 833 833 832 832 832 833 833 833 834 834 834 835 836
746 747 753 752 750 753 752 751 750 752 754 748 752 763 761 754 754 752 746 742 745 752 754 753 755 756 758 761 765 769 770 773 777 779 783 785 787 789 791 793 795 797 798 800 801 802 803 803 804 805 805 806 806 807 808 809 809 810 811 811 811 811 811 811 812 812 813 814 814 816 817 817 817 818 819 821 821 822 822 824 824 824 826 829 832 833 832 832 832 832 833 833 834 833 833 834 836
750 748 755 756 755 757 750 748 749 751 752 746 756 776 769 754 749 745 742 744 750 755 755 754 755 756 758 760 765 768 769 773 776 779 782 784 786 788 790 793 794 796 798 800 801 802 803 804 805 805 806 806 807 807 808 809 810 810 811 811 811 812 812 812 812 812 812 813 814 815 816 816 817 817 818 819 821 822 822 824 826 827 829 830 832 833 832 832 832 832 833 834 834 833 832 834 836
752 752 755 757 763 758 742 743 750 752 752 746 759 779 769 751 743 737 738 744 751 756 756 755 755 756 757 760 764 767 768 772 774 778 781 782 785 787 790 792 794 796 798 800 801 802 803 804 805 806 806 807 807 808 808 809 810 810 811 812 812 812 813 813 813 813 812 812 813 814 815 816 816 816 817 818 819 820 820 822 825 828 830 832 834 834 832 832 832 832 832 833 833 832 832 833 835
753 761 763 758 762 755 737 738 746 752 753 748 760 776 766 750 736 729 736 745 751 755 756 754 755 756 758 760 763 765 767 770 772 776 779 781 784 787 789 792 793 795 798 800 801 802 803 804 805 806 807 807 808 809 809 810 810 811 812 812 812 813 813 813 814 814 813 813 813 813 814 815 816 816 817 818 818 819 820 821 823 825 827 830 833 834 832 832 832 832 832 832 832 832 832 832 833
753 762 767 758 757 755 743 741 742 746 751 750 758 768 761 748 737 734 741 747 750 754 754 754 755 756 757 760 762 764 766 768 770 773 777 780 782 785 788 791 793 794 797 799 801 802 803 804 806 806 807 808 808 809 809 810 811 811 812 812 812 812 813 813 814 814 814 814 814 813 813 815 817 817 817 818 818 818 819 821 822 823 825 827 829 830 830 830 831 831 830 831 831 831 831 831 832
756 757 761 756 752 751 748 747 742 741 749 752 755 762 759 750 744 745 746 747 751 754 754 754 755 756 757 759 762 763 765 768 769 771 775 778 781 784 787 790 792 794 797 799 800 802 803 804 805 806 807 808 809 809 810 810 810 811 811 811 812 812 813 813 813 814 814 814 814 813 813 814 816 816 817 818 818 819 819 820 821 822 823 824 824 826 827 828 829 829 829 828 828 829 830 830 831
760 758 758 757 753 751 748 745 741 742 750 753 755 759 758 751 745 745 747 748 751 753 753 753 753 755 758 759 761 762 763 766 767 768 772 776 779 782 786 789 791 793 796 798 800 801 802 804 805 806 807 807 808 808 809 809 809 810 811 811 812 812 813 813 814 813 814 814 814 814 814 814 815 815 816 817 818 819 819 820 820 820 821 822 822 823 825 826 826 827 827 826 826 827 828 829 830
761 759 757 757 752 749 744 742 741 742 751 756 757 759 755 752 747 743 744 747 751 753 752 752 752 754 757 760 761 761 762 763 764 766 770 774 777 780 784 787 790 793 795 797 799 800 802 803 804 806 806 807 807 807 808 808 809 810 811 811 812 812 813 813 813 814 814 814 813 814 814 814 814 814 815 816 816 817 818 819 819 819 819 820 821 822 822 823 824 825 825 824 824 825 826 828 829
760 760 758 754 750 747 742 745 745 743 753 757 755 757 754 751 748 742 741 744 750 753 753 753 753 753 756 758 760 760 761 760 760 763 766 770 774 777 781 785 788 791 794 796 797 799 800 802 804 805 806 806 806 806 807 808 809 810 811 811 812 812 813 813 813 813 813 813 813 814 814 814 814 814 814 814 815 815 816 817 818 818 817 818 819 819 820 821 822 823 824 823 823 824 825 826 828
761 763 763 758 755 753 746 749 750 747 759 761 754 758 757 751 749 743 740 743 748 751 752 754 753 753 754 755 758 759 759 758 758 761 763 766 769 773 777 781 786 789 792 794 796 798 799 801 802 803 805 806 806 806 807 808 809 810 810 811 811 812 812 813 813 812 813 812 813 813 813 814 814 814 814 814 814 815 815 816 816 817 817 817 818 818 818 819 820 822 823 822 822 823 824 825 827
765 764 765 765 759 755 750 748 748 749 761 764 759 763 761 752 747 744 740 740 742 744 748 751 752 753 753 754 756 757 758 758 759 760 762 763 766 770 775 778 783 787 790 792 794 796 798 800 801 802 804 805 805 806 807 808 809 809 810 811 811 811 812 812 812 811 812 812 812 812 812 813 813 814 814 815 815 815 815 816 816 816 817 817 817 817 818 818 819 820 821 822 822 823 824 824 826
768 767 769 768 760 759 759 754 752 752 759 763 762 765 762 753 748 743 739 738 738 739 743 747 750 752 752 752 753 755 757 759 759 760 760 760 763 768 772 776 780 784 787 790 792 794 796 798 800 801 802 804 804 806 806 807 808 809 810 810 810 811 811 811 811 811 811 812 811 812 812 812 813 813 814 815 815 816 816 816 816 817 817 817 817 817 817 818 818 819 820 821 822 823 822 823 825
768 767 769 767 759 759 761 760 758 758 760 761 765 773 767 755 752 746 738 738 740 739 741 744 746 749 750 750 751 752 754 755 757 758 758 758 762 765 769 773 777 781 784 787 790 792 794 796 798 799 801 802 803 805 805 806 807 808 809 810 810 810 810 811 811 811 811 811 811 811 811 812 812 813 813 814 815 815 816 816 816 817 817 817 817 817 818 817 818 818 819 820 821 821 820 821 823
772 764 761 762 759 758 760 760 762 769 771 759 764 785 777 752 747 746 739 740 742 740 741 742 743 744 747 749 750 750 750 751 753 754 756 757 759 764 767 771 774 778 781 785 787 790 792 794 796 798 800 801 802 803 804 805 806 807 808 808 809 809 810 810 811 811 811 811 811 811 811 811 812 812 813 813 814 815 815 816 816 816 817 817 817 817 817 817 817 817 817 818 818 819 819 820 822
775 761 751 752 754 758 763 763 767 778 776 757 757 782 781 757 744 738 735 738 739 739 740 740 740 740 741 743 745 746 748 749 751 753 755 755 757 761 765 768 772 776 779 782 785 787 790 792 794 796 798 800 801 802 804 805 805 806 807 807 808 808 809 809 810 811 811 811 811 811 811 811 812 812 812 813 813 814 814 815 815 815 816 816 816 817 816 816 816 816 816 816 816 816 817 818 819
771 758 750 750 750 757 763 766 770 771 767 760 755 764 776 771 752 734 731 735 736 736 739 739 738 738 737 737 738 741 744 746 748 751 753 754 756 759 762 766 770 773 777 780 782 785 788 790 792 794 796 798 799 801 802 804 804 805 806 806 807 808 808 809 810 810 811 811 811 811 811 811 811 811 812 812 813 813 813 814 814 814 814 815 815 815 815 815 815 815 815 814 814 814 814 814 816
761 751 750 751 750 754 759 764 768 764 766 774 761 753 770 772 750 735 731 731 732 735 737 736 735 736 736 735 735 737 739 741 744 748 751 752 753 757 760 764 768 771 775 777 780 783 786 788 790 792 795 796 798 800 801 802 803 804 805 806 806 807 808 809 809 810 810 811 811 811 811 811 811 811 812 812 812 812 812 813 812 812 812 812 813 813 813 813 813 813 813 813 813 812 812 812 813
752 747 751 753 752 754 758 764 765 763 771 778 762 751 765 765 745 735 733 731 732 733 730 728 730 733 734 733 734 735 735 737 741 745 749 751 752 755 759 762 766 769 772 775 778 781 784 786 788 790 793 795 796 798 800 801 802 803 804 805 805 806 807 808 808 809 810 810 810 811 811 811 812 812 812 812 812 812 812 812 811 811 811 810 810 810 811 811 811 811 811 811 811 810 810 810 811
749 752 757 758 757 757 760 762 763 773 780 771 756 748 758 765 750 735 731 727 727 728 726 724 725 729 731 731 732 733 734 735 738 742 746 749 751 753 757 760 764 768 770 774 776 779 782 784 786 789 791 793 794 796 798 800 801 801 803 804 804 805 806 807 807 808 809 809 810 810 811 811 811 812 812 812 812 811 811 811 811 810 810 809 809 809 809 809 809 809 809 809 809 809 809 808 808
749 756 761 766 765 762 767 767 768 786 787 766 750 743 749 762 752 733 725 720 721 726 727 726 725 726 728 729 729 730 732 733 735 740 743 746 749 752 755 759 762 766 769 772 774 777 780 783 784 787 789 791 792 795 797 798 799 800 801 802 803 804 805 805 806 807 808 808 809 810 810 810 811 811 812 811 811 811 811 811 810 810 810 809 809 808 808 808 807 807 807 807 807 807 807 807 806
754 759 765 776 777 774 779 779 778 785 778 757 746 741 746 751 740 729 725 721 720 723 725 726 725 723 724 726 727 728 730 732 733 737 740 742 746 749 752 757 760 763 766 770 773 775 778 781 783 785 788 789 791 793 795 796 798 799 800 801 802 803 804 804 805 806 806 807 808 808 809 809 810 810 811 811 811 811 811 810 810 810 809 809 808 808 807 806 806 805 805 804 804 804 804 805 804
758 761 766 778 782 784 786 780 777 775 765 752 743 744 752 749 733 725 724 720 715 715 719 724 724 722 722 723 725 727 729 731 731 733 735 738 742 746 750 754 758 761 764 767 771 774 777 779 781 783 785 787 789 791 793 795 796 797 798 799 800 801 802 803 804 805 805 806 807 807 808 808 809 809 810 810 810 810 810 810 810 809 809 808 808 807 806 806 805 804 804 803 803 802 802 802 802
751 750 756 767 770 777 781 775 772 770 762 755 748 751 761 756 738 723 718 715 712 712 713 717 722 721 721 722 723 726 728 729 730 730 731 734 738 742 747 752 756 759 762 765 768 772 775 777 779 781 783 785 787 789 791 793 794 796 797 798 799 800 801 802 803 804 804 805 806 806 807 807 808 808 808 809 809 809 809 809 809 808 808 808 807 806 806 805 805 804 803 802 802 801 801 801 801
746 738 748 761 758 761 768 767 763 764 768 763 754 753 750 742 731 720 718 718 714 715 713 714 721 722 722 724 724 725 726 726 728 729 730 732 734 738 743 748 753 756 759 762 765 768 772 774 776 778 781 783 785 787 789 791 793 794 795 797 798 799 800 801 802 803 803 804 805 805 806 806 806 807 807 808 808 808 808 808 808 807 807 807 806 806 805 804 804 803 802 802 801 801 800 799 799
747 746 752 749 743 751 766 771 762 764 779 771 757 756 746 736 732 721 720 723 717 717 717 716 720 721 723 725 725 727 727 725 726 726 728 730 733 736 739 744 748 752 756 759 762 765 768 771 773 776 778 780 783 785 787 789 791 793 794 795 796 797 799 800 801 802 802 803 804 804 804 805 805 806 806 807 807 807 807 807 807 806 806 805 805 805 804 804 803 802 802 801 800 800 799 798 798
746 751 747 737 738 746 760 775 774 774 783 770 757 760 755 750 744 724 718 724 721 718 716 716 719 720 723 725 725 727 727 726 725 725 726 729 731 734 736 740 744 747 752 756 759 762 765 768 771 773 776 777 780 782 785 787 789 790 792 793 795 796 797 798 799 800 801 802 802 803 803 804 804 805 805 805 806 806 806 806 805 805 805 804 804 804 803 803 802 801 801 800 799 799 798 796 796
736 738 735 741 757 760 758 770 778 780 783 773 760 756 751 748 741 728 722 723 723 720 718 720 723 722 723 724 724 725 725 725 725 724 726 726 728 731 733 736 740 744 749 752 755 758 761 765 768 771 773 774 777 779 782 785 786 788 790 791 793 794 796 797 798 799 800 800 801 802 802 803 803 804 804 804 804 804 804 804 804 803 803 803 802 802 802 802 801 800 799 799 798 797 797 795 795
736 737 737 742 752 756 754 756 762 770 777 774 766 759 751 738 727 725 724 720 721 723 723 725 725 723 724 724 724 725 724 725 724 724 725 724 724 727 729 732 736 740 745 748 752 754 757 761 764 768 770 772 774 777 779 782 784 786 788 789 791 793 794 795 796 797 798 799 800 800 801 801 802 802 803 803 803 803 803 802 802 802 801 801 801 801 801 801 800 799 798 797 797 796 795 794 793
745 748 750 749 748 749 753 751 747 754 766 768 768 767 753 731 718 718 720 718 719 721 722 725 724 722 723 724 724 725 724 725 725 724 723 722 722 723 725 729 732 737 741 744 747 750 754 757 760 764 766 768 771 773 776 779 781 783 786 787 789 791 793 794 795 796 797 798 798 799 800 800 800 801 801 801 801 801 801 801 800 800 799 799 799 799 799 799 799 798 797 796 795 795 794 793 792
742 748 749 751 753 757 770 771 753 747 757 762 765 769 752 728 719 718 717 718 720 720 723 725 722 722 724 724 724 724 724 725 725 725 724 722 720 721 723 726 729 733 737 741 744 746 750 754 758 760 763 765 767 770 773 776 778 781 783 785 787 789 791 792 793 794 795 796 797 798 798 799 799 799 799 800 800 799 799 799 799 798 798 797 797 796 797 797 797 796 796 795 794 794 793 791 790